Seattle, WA
on Friday, November 9, 2012

Friday
Previous Day Next Day
Daily Summary
 ActualAverageRecord
Temperature
Mean Temperature °F 47°F  
Max Temperature 48°F 52°F 64°F (1997)
Min Temperature 34°F 41°F 27°F (1948)
Degree Days
Heating Degree Days 24 18  
Month to date heating degree days 126 155  
Since 1 July heating degree days 619 752  
Cooling Degree Days 0 0  
Month to date cooling degree days 0 0  
Year to date cooling degree days 177 189  
Moisture
Dew Point 31°F   
Average Humidity 69    
Maximum Humidity 92    
Minimum Humidity 45    
Precipitation
Precipitation T in 0.21 in 2.95 in (1990)
Month to date precipitation 0.98 1.82  
Year to date precipitation 34.11 27.39  
Snow
Snow 0.00 in in in ()
Month to date snowfall 0.0  
Since 1 July snowfall 0.0  
Snow Depth 0.00 in   
Wind
Wind Speed 5 mph   
Max Wind Speed 14 mph   
Max Gust Speed 16 mph   
Visibility 10 miles   
Events Fog   

Key: T is trace of precipitation, MM is missing value
Source: NWS Daily Summary
Time(PST)TemperatureDew PointHumidity Pressure Visibility Wind DirectionWind SpeedGust SpeedPrecipitationEvents Conditions
12:53 AM 39.9°F 32.0°F 73% 29.87 in 10.0 miles Calm Calm - N/A   Partly Cloudy
1:53 AM 39.9°F 30.9°F 70% 29.88 in 10.0 miles North 4.6 mph - 0.00 in   Scattered Clouds
2:53 AM 37.9°F 30.0°F 73% 29.88 in 10.0 miles Calm Calm - N/A   Scattered Clouds
3:53 AM 39.0°F 34.0°F 82% 29.88 in 10.0 miles SW 3.5 mph - N/A   Partly Cloudy
4:53 AM 37.0°F 34.0°F 89% 29.89 in 10.0 miles Calm Calm - N/A   Scattered Clouds
5:53 AM 37.0°F 34.0°F 89% 29.90 in 10.0 miles Calm Calm - N/A   Partly Cloudy
6:53 AM 37.9°F 33.1°F 83% 29.90 in 10.0 miles Calm Calm - N/A   Partly Cloudy
7:53 AM 37.0°F 34.0°F 89% 29.92 in 10.0 miles SSE 3.5 mph - N/A Fog Patches of Fog
8:53 AM 39.9°F 37.9°F 93% 29.92 in 10.0 miles SSW 3.5 mph - N/A   Scattered Clouds
9:53 AM 44.1°F 36.0°F 73% 29.92 in 10.0 miles Calm Calm - N/A   Scattered Clouds
10:53 AM 44.1°F 32.0°F 63% 29.93 in 10.0 miles North 8.1 mph - N/A   Mostly Cloudy
11:53 AM 45.0°F 30.0°F 56% 29.92 in 10.0 miles North 9.2 mph - N/A   Scattered Clouds
12:53 PM 46.0°F 28.0°F 50% 29.92 in 10.0 miles North 8.1 mph - 0.00 in   Scattered Clouds
1:53 PM 46.9°F 27.0°F 46% 29.91 in 10.0 miles North 6.9 mph - N/A   Partly Cloudy
2:53 PM 46.0°F 28.0°F 50% 29.91 in 10.0 miles NNE 9.2 mph - N/A   Partly Cloudy
3:53 PM 44.1°F 27.0°F 51% 29.91 in 10.0 miles NNW 8.1 mph - N/A   Partly Cloudy
4:53 PM 41.0°F 27.0°F 57% 29.92 in 10.0 miles NNW 5.8 mph - N/A   Partly Cloudy
5:53 PM 37.9°F 27.0°F 65% 29.93 in 10.0 miles North 4.6 mph - N/A   Partly Cloudy
6:53 PM 39.2°F 26.6°F 61% 29.90 in 10.0 miles North 5.8 mph - N/A   Clear
7:53 PM 37.9°F 28.9°F 70% 29.94 in 10.0 miles North 6.9 mph - N/A   Clear
8:53 PM 37.0°F 28.9°F 73% 29.96 in 10.0 miles North 5.8 mph - N/A   Clear
9:53 PM 39.0°F 30.0°F 70% 29.96 in 10.0 miles NE 4.6 mph - N/A   Scattered Clouds
10:53 PM 36.0°F 28.9°F 76% 29.97 in 10.0 miles ESE 3.5 mph - N/A   Partly Cloudy
11:53 PM 34.0°F 28.9°F 82% 29.98 in 10.0 miles ESE 5.8 mph - N/A   Partly Cloudy
Moon Phase
Nov. 09 Nov. 13 Nov. 20 Nov. 28 Dec. 06
Sunrise:07:05 AM (PST) Moon Rise:01:52 AM (PST)11/9
Sunset:04:39 PM (PST) Moon Set:02:11 PM (PST)11/9

Copyright © 2014 The Weather Underground, Inc.